�������l�o���
Date,Time,MP-1(��Sv/h),MP-2(��Sv/h),MP-3(��Sv/h),MP-4(��Sv/h),MP-5(��Sv/h),MP-6(��Sv/h),MP-7(��Sv/h),MP-8(��Sv/h),����,����(m/s),���J
2018/09/19,00:00,0.798,1.206,0.848,1.496,1.096,0.468,0.817,0.774,�k�k��,5.8,��
2018/09/19,00:10,0.801,1.203,0.848,1.493,1.095,0.467,0.816,0.773,�k�k��,5.1,��
2018/09/19,00:20,0.798,1.205,0.847,1.496,1.096,0.468,0.817,0.773,�k��,4.8,��
2018/09/19,00:30,0.797,1.204,0.846,1.491,1.095,0.467,0.817,0.775,�k��,4.0,��
2018/09/19,00:40,0.800,1.205,0.846,1.492,1.095,0.466,0.817,0.773,�k��,4.8,��
2018/09/19,00:50,0.798,1.200,0.845,1.496,1.096,0.467,0.815,0.773,�k��,4.4,��
2018/09/19,01:00,0.800,1.204,0.847,1.492,1.094,0.468,0.816,0.772,�k��,4.7,��
2018/09/19,01:10,0.800,1.204,0.847,1.495,1.095,0.468,0.816,0.773,�k��,4.4,��
2018/09/19,01:20,0.798,1.202,0.847,1.494,1.094,0.467,0.818,0.773,�k��,4.8,��
2018/09/19,01:30,0.802,1.204,0.847,1.494,1.095,0.468,0.817,0.773,�k��,4.0,��
2018/09/19,01:40,0.800,1.205,0.846,1.493,1.095,0.469,0.817,0.772,�k��,5.0,��
2018/09/19,01:50,0.800,1.203,0.847,1.493,1.094,0.467,0.816,0.773,�k��,4.7,��
2018/09/19,02:00,0.798,1.205,0.846,1.496,1.093,0.467,0.817,0.773,�k��,5.2,��
2018/09/19,02:10,0.798,1.205,0.849,1.497,1.096,0.468,0.818,0.774,�k��,5.8,��
2018/09/19,02:20,0.799,1.203,0.845,1.495,1.093,0.468,0.814,0.774,�k��,5.0,��
2018/09/19,02:30,0.800,1.203,0.846,1.494,1.096,0.469,0.815,0.772,�k��,4.4,��
2018/09/19,02:40,0.800,1.205,0.849,1.494,1.093,0.468,0.816,0.774,�k��,5.1,��
2018/09/19,02:50,0.799,1.204,0.846,1.495,1.095,0.468,0.815,0.772,�k��,4.7,��
2018/09/19,03:00,0.799,1.201,0.849,1.493,1.094,0.468,0.816,0.774,�k��,5.9,��
2018/09/19,03:10,0.799,1.202,0.847,1.494,1.095,0.468,0.817,0.771,�k��,6.2,��
2018/09/19,03:20,0.799,1.202,0.846,1.495,1.094,0.467,0.817,0.774,�k��,5.4,��
2018/09/19,03:30,0.797,1.202,0.846,1.495,1.093,0.467,0.817,0.774,�k��,4.8,��
2018/09/19,03:40,0.798,1.202,0.846,1.494,1.092,0.467,0.816,0.774,���k��,5.2,��
2018/09/19,03:50,0.799,1.203,0.849,1.494,1.095,0.467,0.817,0.772,���k��,4.6,��
2018/09/19,04:00,0.798,1.203,0.845,1.496,1.091,0.466,0.816,0.773,���k��,4.9,��
2018/09/19,04:10,0.796,1.202,0.847,1.497,1.092,0.468,0.817,0.772,���k��,4.7,��
2018/09/19,04:20,0.797,1.200,0.847,1.494,1.094,0.467,0.815,0.772,���k��,5.0,��
2018/09/19,04:30,0.799,1.202,0.849,1.495,1.093,0.467,0.815,0.774,���k��,5.1,��
2018/09/19,04:40,0.799,1.201,0.848,1.494,1.094,0.467,0.817,0.774,���k��,5.5,��
2018/09/19,04:50,0.798,1.202,0.846,1.495,1.094,0.468,0.816,0.773,���k��,5.2,��
2018/09/19,05:00,0.799,1.203,0.847,1.494,1.093,0.468,0.815,0.773,���k��,5.2,��
2018/09/19,05:10,0.799,1.204,0.847,1.496,1.094,0.468,0.817,0.773,���k��,5.0,��
2018/09/19,05:20,0.798,1.202,0.845,1.496,1.093,0.466,0.817,0.773,���k��,5.8,��
2018/09/19,05:30,0.798,1.202,0.846,1.495,1.090,0.467,0.816,0.773,���k��,7.2,��
2018/09/19,05:40,0.797,1.201,0.846,1.496,1.092,0.465,0.817,0.773,���k��,7.1,��
2018/09/19,05:50,0.797,1.204,0.846,1.496,1.095,0.467,0.815,0.772,�k��,7.7,��
2018/09/19,06:00,0.798,1.200,0.846,1.493,1.090,0.465,0.816,0.774,�k��,7.9,��
2018/09/19,06:10,0.801,1.202,0.847,1.493,1.091,0.467,0.816,0.774,���k��,7.8,��
2018/09/19,06:20,0.799,1.202,0.848,1.496,1.094,0.465,0.817,0.773,�k��,8.3,��
2018/09/19,06:30,0.800,1.204,0.848,1.494,1.094,0.467,0.818,0.773,�k��,7.4,��
2018/09/19,06:40,0.798,1.203,0.847,1.496,1.093,0.468,0.817,0.774,�k��,6.9,��
2018/09/19,06:50,0.800,1.203,0.846,1.492,1.095,0.467,0.816,0.773,�k��,7.6,��
2018/09/19,07:00,0.798,1.203,0.847,1.496,1.094,0.467,0.818,0.773,�k��,6.6,��
2018/09/19,07:10,0.799,1.201,0.846,1.496,1.094,0.468,0.817,0.772,�k��,6.5,��
2018/09/19,07:20,0.798,1.203,0.848,1.494,1.091,0.467,0.817,0.773,�k��,6.2,��
2018/09/19,07:30,0.799,1.200,0.848,1.496,1.095,0.466,0.817,0.774,�k��,6.1,��
2018/09/19,07:40,0.799,1.204,0.848,1.492,1.095,0.467,0.816,0.774,�k��,5.6,��
2018/09/19,07:50,0.800,1.202,0.847,1.496,1.094,0.465,0.817,0.776,�k��,5.6,��
2018/09/19,08:00,0.802,1.205,0.845,1.497,1.095,0.466,0.817,0.774,�k��,4.8,��
2018/09/19,08:10,0.800,1.201,0.846,1.497,1.096,0.466,0.817,0.775,�k��,4.1,��
2018/09/19,08:20,0.799,1.204,0.847,1.499,1.095,0.467,0.817,0.774,�k��,3.5,��
2018/09/19,08:30,0.801,1.204,0.848,1.497,1.096,0.467,0.816,0.774,�k�k��,3.6,��
2018/09/19,08:40,0.799,1.200,0.848,1.500,1.096,0.466,0.818,0.774,�k�k��,3.5,��
2018/09/19,08:50,0.799,1.201,0.846,1.499,1.094,0.465,0.816,0.772,�k�k��,4.1,��
2018/09/19,09:00,0.798,1.202,0.848,1.496,1.094,0.465,0.817,0.774,�k,3.5,��
2018/09/19,09:10,0.800,1.200,0.849,1.499,1.097,0.466,0.818,0.772,�k,3.6,��
2018/09/19,09:20,0.801,1.197,0.847,1.499,1.097,0.466,0.817,0.771,�k�k��,3.1,��
2018/09/19,09:30,0.801,1.203,0.849,1.500,1.096,0.468,0.818,0.774,�k��,3.7,��
2018/09/19,09:40,0.802,1.198,0.847,1.496,1.097,0.465,0.818,0.773,�k�k��,4.1,��
2018/09/19,09:50,0.800,1.201,0.843,1.500,1.096,0.467,0.817,0.773,�k��,3.2,��
2018/09/19,10:00,0.800,1.200,0.848,1.500,1.099,0.467,0.820,0.772,�k��,4.4,��
2018/09/19,10:10,0.798,1.201,0.847,1.500,1.098,0.465,0.817,0.772,�k��,4.6,��
2018/09/19,10:20,0.802,1.197,0.847,1.499,1.097,0.466,0.816,0.773,�k��,4.1,��
2018/09/19,10:30,0.800,1.202,0.846,1.503,1.098,0.467,0.818,0.774,�k��,4.4,��
2018/09/19,10:40,0.804,1.205,0.848,1.500,1.098,0.467,0.817,0.773,�k��,4.2,��
2018/09/19,10:50,0.803,1.203,0.847,1.500,1.097,0.466,0.818,0.774,���k��,4.0,��
2018/09/19,11:00,0.803,1.205,0.846,1.502,1.101,0.466,0.817,0.773,�k��,3.9,��
2018/09/19,11:10,0.802,1.206,0.848,1.500,1.102,0.466,0.819,0.774,�k��,3.9,��
2018/09/19,11:20,0.802,1.205,0.848,1.501,1.104,0.466,0.820,0.771,�k��,3.8,��
2018/09/19,11:30,0.804,1.207,0.848,1.500,1.103,0.468,0.819,0.773,�k��,4.4,��
2018/09/19,11:40,0.803,1.208,0.848,1.501,1.101,0.467,0.819,0.773,�k��,4.2,��
2018/09/19,11:50,0.803,1.204,0.850,1.498,1.102,0.468,0.819,0.772,�k��,4.4,��
2018/09/19,12:00,0.803,1.204,0.851,1.501,1.100,0.467,0.819,0.773,���k��,4.5,��
2018/09/19,12:10,0.805,1.207,0.850,1.503,1.103,0.468,0.817,0.775,�k��,4.1,��
2018/09/19,12:20,0.805,1.204,0.848,1.502,1.101,0.467,0.818,0.773,�k��,3.4,��
2018/09/19,12:30,0.804,1.207,0.850,1.501,1.104,0.467,0.819,0.774,�k��,3.8,��
2018/09/19,12:40,0.804,1.207,0.850,1.503,1.103,0.467,0.819,0.774,���k��,3.2,��
2018/09/19,12:50,0.804,1.208,0.849,1.501,1.104,0.466,0.818,0.774,���k��,3.4,��
2018/09/19,13:00,0.803,1.210,0.851,1.500,1.105,0.468,0.820,0.774,���k��,2.9,��
2018/09/19,13:10,0.805,1.207,0.851,1.503,1.104,0.467,0.819,0.774,���k��,2.6,��
2018/09/19,13:20,0.805,1.207,0.850,1.501,1.103,0.467,0.818,0.774,��,2.5,��
2018/09/19,13:30,0.806,1.210,0.849,1.503,1.103,0.468,0.819,0.776,���쓌,3.3,��
2018/09/19,13:40,0.806,1.206,0.851,1.505,1.106,0.466,0.819,0.774,��,3.2,��
2018/09/19,13:50,0.805,1.208,0.852,1.504,1.106,0.466,0.820,0.775,���쓌,2.5,��
2018/09/19,14:00,0.804,1.208,0.851,1.505,1.106,0.468,0.819,0.773,���쓌,2.6,��
2018/09/19,14:10,0.807,1.207,0.851,1.503,1.108,0.467,0.819,0.774,�쓌,2.6,��
2018/09/19,14:20,0.806,1.205,0.852,1.502,1.106,0.467,0.818,0.775,�쓌,3.3,��
2018/09/19,14:30,0.804,1.208,0.851,1.504,1.097,0.467,0.819,0.776,�쓌,3.3,��
2018/09/19,14:40,0.805,1.209,0.848,1.503,1.108,0.467,0.818,0.774,�쓌,2.0,��
2018/09/19,14:50,0.805,1.210,0.853,1.503,1.107,0.467,0.820,0.773,���쓌,3.3,��
2018/09/19,15:00,0.805,1.211,0.849,1.502,1.105,0.467,0.820,0.775,��쓌,3.0,��
2018/09/19,15:10,0.805,1.211,0.851,1.503,1.106,0.468,0.820,0.776,��,3.1,��
2018/09/19,15:20,0.806,1.211,0.852,1.500,1.104,0.467,0.820,0.775,��쓌,3.0,��
2018/09/19,15:30,0.804,1.209,0.852,1.503,1.106,0.468,0.819,0.774,��쓌,3.4,��
2018/09/19,15:40,0.806,1.211,0.852,1.504,1.109,0.468,0.821,0.775,��쓌,2.9,��
2018/09/19,15:50,0.806,1.213,0.852,1.501,1.107,0.468,0.819,0.773,��쓌,3.5,��
2018/09/19,16:00,0.806,1.209,0.852,1.499,1.106,0.468,0.820,0.773,��쓌,3.0,��
2018/09/19,16:10,0.805,1.215,0.854,1.500,1.107,0.467,0.821,0.775,��쓌,3.3,��
2018/09/19,16:20,0.806,1.213,0.853,1.500,1.109,0.468,0.818,0.773,��쓌,2.8,��
2018/09/19,16:30,0.805,1.213,0.852,1.501,1.108,0.466,0.817,0.775,��쓌,3.2,��
2018/09/19,16:40,0.807,1.215,0.852,1.502,1.106,0.467,0.818,0.772,��쓌,2.3,��
2018/09/19,16:50,0.806,1.216,0.852,1.502,1.109,0.468,0.819,0.773,��쓌,2.2,��
2018/09/19,17:00,0.807,1.214,0.853,1.501,1.108,0.468,0.820,0.773,��,2.3,��
2018/09/19,17:10,0.804,1.215,0.853,1.498,1.107,0.469,0.821,0.773,��쓌,2.6,��
2018/09/19,17:20,0.803,1.215,0.853,1.498,1.107,0.468,0.821,0.777,��쓌,3.0,��
2018/09/19,17:30,0.808,1.217,0.853,1.501,1.108,0.470,0.820,0.779,��쓌,3.2,��
2018/09/19,17:40,0.807,1.221,0.856,1.502,1.105,0.469,0.819,0.777,��,3.5,��
2018/09/19,17:50,0.808,1.220,0.856,1.503,1.109,0.468,0.818,0.777,��,2.9,��
2018/09/19,18:00,0.808,1.220,0.856,1.506,1.108,0.469,0.822,0.776,��,3.8,��
2018/09/19,18:10,0.809,1.218,0.857,1.507,1.109,0.470,0.821,0.776,��,4.3,��
2018/09/19,18:20,0.808,1.219,0.855,1.507,1.109,0.469,0.820,0.776,��,4.4,��
2018/09/19,18:30,0.808,1.220,0.857,1.505,1.112,0.469,0.821,0.777,��,4.6,��
2018/09/19,18:40,0.808,1.218,0.857,1.508,1.107,0.470,0.820,0.776,��,4.7,��
2018/09/19,18:50,0.808,1.219,0.855,1.506,1.111,0.470,0.822,0.776,��,5.0,��
2018/09/19,19:00,0.807,1.221,0.857,1.504,1.111,0.470,0.822,0.776,��,4.6,��
2018/09/19,19:10,0.807,1.218,0.857,1.507,1.112,0.471,0.821,0.776,��,5.1,��
2018/09/19,19:20,0.809,1.218,0.856,1.506,1.110,0.471,0.821,0.776,��,4.8,��
2018/09/19,19:30,0.808,1.219,0.857,1.505,1.108,0.471,0.821,0.776,��쐼,4.4,��
2018/09/19,19:40,0.810,1.221,0.858,1.504,1.106,0.469,0.819,0.778,��,3.7,��
2018/09/19,19:50,0.808,1.217,0.856,1.505,1.109,0.471,0.821,0.777,��쐼,3.3,��
2018/09/19,20:00,0.807,1.219,0.857,1.507,1.108,0.471,0.822,0.776,��쐼,2.9,��
2018/09/19,20:10,0.807,1.219,0.855,1.504,1.109,0.469,0.821,0.776,��쐼,2.6,��
2018/09/19,20:20,0.808,1.217,0.857,1.506,1.107,0.470,0.819,0.777,��쐼,2.6,��
2018/09/19,20:30,0.807,1.219,0.857,1.506,1.105,0.469,0.822,0.775,�쐼,2.5,��
2018/09/19,20:40,0.806,1.217,0.856,1.504,1.111,0.470,0.821,0.776,�쐼,2.6,��
2018/09/19,20:50,0.807,1.217,0.855,1.507,1.110,0.469,0.821,0.776,�쐼,3.2,��
2018/09/19,21:00,0.806,1.215,0.855,1.504,1.109,0.469,0.819,0.775,�쐼,3.3,��
2018/09/19,21:10,0.808,1.217,0.856,1.504,1.110,0.470,0.820,0.775,���쐼,3.6,��
2018/09/19,21:20,0.806,1.218,0.855,1.505,1.110,0.468,0.821,0.775,���쐼,2.9,��
2018/09/19,21:30,0.807,1.218,0.855,1.505,1.107,0.469,0.818,0.775,���쐼,3.2,��
2018/09/19,21:40,0.808,1.212,0.856,1.506,1.111,0.469,0.819,0.775,�쐼,3.0,��
2018/09/19,21:50,0.805,1.217,0.855,1.507,1.108,0.469,0.820,0.775,�쐼,3.0,��
2018/09/19,22:00,0.806,1.214,0.856,1.502,1.107,0.469,0.819,0.775,�쐼,3.3,��
2018/09/19,22:10,0.806,1.216,0.855,1.504,1.109,0.470,0.819,0.776,�쐼,4.0,��
2018/09/19,22:20,0.806,1.215,0.857,1.506,1.104,0.469,0.820,0.776,�쐼,4.3,��
2018/09/19,22:30,0.806,1.216,0.854,1.502,1.106,0.469,0.819,0.777,�쐼,3.8,��
2018/09/19,22:40,0.806,1.217,0.856,1.505,1.107,0.469,0.818,0.774,�쐼,3.9,��
2018/09/19,22:50,0.806,1.214,0.856,1.505,1.110,0.467,0.819,0.775,�쐼,3.7,��
2018/09/19,23:00,0.805,1.215,0.853,1.505,1.107,0.470,0.821,0.775,���쐼,3.7,��
2018/09/19,23:10,0.807,1.213,0.854,1.506,1.108,0.468,0.820,0.776,���쐼,3.7,��
2018/09/19,23:20,0.806,1.216,0.853,1.507,1.108,0.469,0.819,0.775,���쐼,3.6,��
2018/09/19,23:30,0.807,1.216,0.854,1.506,1.107,0.469,0.818,0.776,���쐼,3.5,��
2018/09/19,23:40,0.807,1.215,0.854,1.506,1.108,0.470,0.819,0.776,��,3.6,��
2018/09/19,23:50,0.805,1.216,0.854,1.505,1.108,0.469,0.820,0.777,���k��,2.9,��
